Home   Weather   Curitiba   Past weeks

Flag for Brazil Past Weather in Curitiba, Paraná, Brazil — Yesterday and Last 2 Weeks

Now
63 °F

Passing clouds.


Feels Like: 63 °F
Forecast: 55 / 84 °F
Wind: 6 mph from Southeast

Location: Curitiba Aeroporto

Current Time: Dec 5, 2016 at 10:45:10 pm

Latest Report: Dec 5, 2016 at 9:00 pm


Visibility: N/A

Pressure: 29.92 "Hg (26.86 "Hg at 915m altitude)

Humidity: 83%

Dew Point: 57 °F

Location of CuritibaLocation

Past Weather in Curitiba — Graph

°F

Curitiba Temperature Yesterday

Maximum temperature yesterday: 75 °F (at 3:00 pm)
Minimum temperature yesterday: 59 °F (at 10:00 pm)
Average temperature yesterday: 66 °F

High & Low Weather Summary for the Past Weeks

 TemperatureHumidityPressure
High88 °F (Nov 27, 4:00 pm)100% (Nov 21, 12:00 am)30.27 "Hg (Nov 21, 12:00 am)
Low52 °F (Dec 5, 5:00 am)22% (Nov 21, 5:00 pm)29.71 "Hg (Dec 4, 5:00 am)
Average65 °F83%30.03 "Hg
* Reported Nov 20 9:00 pm — Dec 5 9:00 pm, Curitiba, Weather by CustomWeather, © 2016

Note: Actual official high and low records may vary slightly from our data, if they occured in-between our weather recording intervals... More about our weather records

Advertising

Curitiba Weather History for the Previous 24 Hours

Scroll right to see more
 ConditionsComfort  
Time TempWeatherWind HumidityBarometerVisibility
9:00 pm
Mon, Dec 5
63 °FPassing clouds.6 mph83%29.92 "HgN/A
8:00 pm72 °FPassing clouds.8 mph50%29.89 "HgN/A
7:00 pm73 °FPassing clouds.10 mph44%29.86 "HgN/A
6:00 pm75 °FPassing clouds.5 mph41%29.86 "HgN/A
4:00 pm73 °FScattered clouds.3 mph47%29.86 "HgN/A
2:00 pm72 °FPassing clouds.12 mph44%29.86 "HgN/A
1:00 pm72 °FPassing clouds.10 mph50%29.89 "HgN/A
12:00 pm68 °FPassing clouds.8 mph53%29.89 "HgN/A
11:00 am64 °FPassing clouds.10 mph56%29.89 "HgN/A
10:00 am63 °FPassing clouds.9 mph64%29.89 "HgN/A
9:00 am59 °FSunny.9 mph77%29.89 "Hg10 mi
8:00 am55 °FSunny.7 mph82%29.86 "Hg10 mi
7:00 am54 °FPassing clouds.3 mph88%29.86 "HgN/A
6:00 am52 °FPassing clouds.3 mph88%29.83 "HgN/A
5:00 am52 °FPassing clouds.3 mph94%29.83 "HgN/A
4:00 am55 °FPassing clouds.5 mph82%29.83 "HgN/A
3:00 am55 °FPartly cloudy.3 mph82%29.86 "HgN/A
2:00 am55 °FPassing clouds.7 mph88%29.86 "HgN/A
1:00 am59 °FPassing clouds.9 mph88%29.86 "HgN/A
12:00 am59 °FFog.8 mph94%29.86 "Hg3 mi
11:00 pm
Sun, Dec 4
59 °FPassing clouds.5 mph100%29.86 "HgN/A
10:00 pm59 °FPassing clouds.7 mph100%29.83 "HgN/A
Weather by CustomWeather, © 2016

See weather overviewHow to use our weather pages